Weather History for Texarkana, AR

Change the Weather History Date:

Thursday, January 24, 2013

  Actual Average Record
Temperature  
Mean Temperature 51 °F 44 °F  
Max Temperature 58 °F 54 °F 81 °F (1909)
Min Temperature 44 °F 34 °F 6 °F (1963)
Degree Days  
Heating Degree Days 14 21  
Month to date heating degree days 484 517  
Since 1 July heating degree days 1382 1584  
Cooling Degree Days 0 0  
Month to date cooling degree days 0 0  
Year to date cooling degree days 0 0  
Moisture  
Dew Point 46 °F    
Average Humidity 85    
Maximum Humidity 100    
Minimum Humidity 70    
Precipitation  
Precipitation T in 0.11 in 2.05 in (2004)
Month to date precipitation 2.57 2.61  
Year to date precipitation 2.57 2.61  
Snow  
Snow 0.00 in - - ()
Month to date snowfall 0.1  
Since 1 July snowfall 2.1  
Snow Depth 0.00 in    
Sea Level Pressure  
Sea Level Pressure 30.22 in    
Wind  
Wind Speed 7 mph (East)    
Max Wind Speed 15 mph    
Max Gust Speed 20 mph    
Visibility 5 miles    
Events Rain    
T = Trace of Precipitation, MM = Missing Value Source: NWS Daily Summary

Daily Weather History Graph

Daily Weather History Graph

Search for Another Location

Airport:

Trip Planner

Search our weather history database for the weather conditions in past years. The results will help you decide how hot, cold, wet, or windy it might be!

Date:

Astronomy

Jan. 24, 2013 Rise Set
Actual Time 7:16 AM CST 5:40 PM CST
Civil Twilight 6:50 AM CST 6:06 PM CST
Nautical Twilight 6:20 AM CST 6:36 PM CST
Astronomical Twilight 5:50 AM CST 7:06 PM CST
Moon 3:44 PM CST (1/24) 5:12 AM CST (1/24)
Length of Visible Light 11h 16m
Length of Day
10h 23m
Waxing Gibbous, 94% of the Moon is Illuminated
Jan 24
Waxing Gibbous
Jan 26
Full
Feb 3
Last Quarter
Feb 10
New
Feb 17
First Quarter

Hourly Weather History & Observations

Time (CST) Temp. Windchill Dew Point Humidity Pressure Visibility Wind Dir Wind Speed Gust Speed Precip Events Conditions
12:53 AM 57.0 °F - 50.0 °F 77% 30.20 in 10.0 mi South 5.8 mph - N/A   Mostly Cloudy
1:53 AM 57.0 °F - 48.9 °F 74% 30.20 in 10.0 mi South 6.9 mph - N/A   Mostly Cloudy
2:53 AM 55.0 °F - 48.9 °F 80% 30.21 in 10.0 mi South 5.8 mph - N/A   Clear
3:53 AM 54.0 °F - 50.0 °F 86% 30.19 in 10.0 mi South 4.6 mph - N/A   Clear
4:53 AM 52.0 °F - 51.1 °F 97% 30.20 in 9.0 mi Calm Calm - N/A   Clear
5:53 AM 48.9 °F - 48.0 °F 97% 30.20 in 4.0 mi Calm Calm - N/A   Clear
6:53 AM 48.9 °F - 48.9 °F 100% 30.20 in 3.0 mi East 5.8 mph - N/A   Mostly Cloudy
7:11 AM 50.0 °F - 48.2 °F 94% 30.22 in 3.0 mi East 3.5 mph - N/A   Mostly Cloudy
7:22 AM 50.0 °F - 50.0 °F 100% 30.22 in 3.0 mi East 4.6 mph - N/A   Overcast
7:28 AM 50.0 °F - 50.0 °F 100% 30.22 in 2.5 mi East 4.6 mph - N/A   Overcast
7:41 AM 50.0 °F - 50.0 °F 100% 30.23 in 1.8 mi East 3.5 mph - N/A   Overcast
7:53 AM 51.1 °F - 50.0 °F 96% 30.23 in 1.8 mi ENE 5.8 mph - N/A   Overcast
8:11 AM 51.8 °F - 51.8 °F 100% 30.24 in 1.8 mi ENE 6.9 mph - N/A   Overcast
8:34 AM 53.6 °F - 51.8 °F 94% 30.25 in 2.0 mi ENE 4.6 mph - N/A   Overcast
8:53 AM 53.1 °F - 53.1 °F 100% 30.25 in 2.5 mi East 5.8 mph - N/A   Overcast
9:09 AM 53.6 °F - 53.6 °F 100% 30.26 in 3.0 mi Calm Calm - N/A   Overcast
9:34 AM 53.6 °F - 53.6 °F 100% 30.26 in 2.5 mi ENE 4.6 mph - N/A   Overcast
9:53 AM 52.0 °F - 50.0 °F 93% 30.26 in 2.0 mi ENE 9.2 mph - 0.00 in Rain Light Rain
10:01 AM 51.8 °F - 50.0 °F 94% 30.27 in 1.2 mi ENE 8.1 mph - 0.00 in Rain Light Rain
10:53 AM 48.9 °F - 48.0 °F 97% 30.27 in 1.0 mi ENE 10.4 mph - 0.00 in   Overcast
11:13 AM 48.2 °F - 46.4 °F 93% 30.26 in 0.8 mi ENE 10.4 mph - N/A   Overcast
11:28 AM 46.4 °F 41.9 °F 46.4 °F 100% 30.26 in 1.0 mi ENE 9.2 mph 17.3 mph N/A   Overcast
11:53 AM 46.0 °F 40.6 °F 45.0 °F 96% 30.27 in 1.2 mi ENE 11.5 mph 19.6 mph N/A   Overcast
12:53 PM 45.0 °F 39.3 °F 44.1 °F 97% 30.24 in 1.2 mi ENE 11.5 mph 18.4 mph N/A   Overcast
1:17 PM 44.6 °F 39.2 °F 44.6 °F 100% 30.22 in 1.8 mi East 10.4 mph - N/A   Overcast
1:25 PM 46.4 °F 42.4 °F 44.6 °F 93% 30.22 in 2.0 mi ENE 8.1 mph 18.4 mph N/A   Overcast
1:41 PM 46.4 °F 42.4 °F 44.6 °F 93% 30.21 in 3.0 mi East 8.1 mph - N/A   Overcast
1:53 PM 48.0 °F - 45.0 °F 89% 30.21 in 4.0 mi Variable 6.9 mph - N/A   Overcast
2:28 PM 48.2 °F - 44.6 °F 87% 30.19 in 1.8 mi Variable 5.8 mph - N/A   Overcast
2:38 PM 48.2 °F - 44.6 °F 87% 30.20 in 3.0 mi East 4.6 mph - N/A   Overcast
2:53 PM 46.9 °F - 44.1 °F 90% 30.20 in 4.0 mi East 5.8 mph - N/A   Overcast
3:18 PM 46.4 °F 44.3 °F 44.6 °F 93% 30.19 in 6.0 mi East 4.6 mph - N/A   Overcast
3:53 PM 46.9 °F - 44.1 °F 90% 30.18 in 8.0 mi ENE 8.1 mph - N/A   Overcast
4:53 PM 46.0 °F 42.5 °F 42.1 °F 86% 30.19 in 9.0 mi ENE 6.9 mph - N/A   Overcast
5:53 PM 45.0 °F 40.6 °F 39.0 °F 80% 30.19 in 10.0 mi ENE 8.1 mph - N/A   Overcast
6:53 PM 45.0 °F 40.6 °F 37.0 °F 74% 30.19 in 10.0 mi ENE 8.1 mph - N/A   Overcast
7:53 PM 45.0 °F 41.2 °F 36.0 °F 71% 30.19 in 10.0 mi ENE 6.9 mph - N/A   Overcast
8:53 PM 44.1 °F 40.1 °F 35.1 °F 71% 30.17 in 10.0 mi East 6.9 mph - N/A   Overcast
9:53 PM 44.1 °F 41.5 °F 36.0 °F 73% 30.15 in 10.0 mi East 4.6 mph - N/A   Overcast
10:53 PM 44.1 °F 40.1 °F 36.0 °F 73% 30.17 in 10.0 mi ENE 6.9 mph - N/A   Overcast
11:53 PM 44.1 °F 40.1 °F 35.1 °F 71% 30.16 in 10.0 mi ENE 6.9 mph - N/A   Overcast